Content
SEND FEEDBACK

Daily
Averages
Monthly
Summary
Canada

VANCOUVER, BRITISH COLUMBIA


Home > North America > Canada > British Columbia
Elevation: 7 feet     Latitude: 49 11N     Longitude: 123 10W

WEATHER
 
SELECT A DAY
Number of Records: 249,307;   Date Range: 5/15/97 - 7/28/14
 
SHARE

PRINT THIS DATA

[ ← Previous Day ]
WEATHER ALMANAC - MARCH 3, 2013
[ Next Day → ]
[ °C ]   °F
Weather ElementAverageHighLow
Temperature39.3 °F46.4 °F (11:55 am)32 °F (6:15 am)
Dewpoint33.9 °F37.4 °F (12:35 pm)32 °F (1:15 am)
Humidity81.8 %100 % (6:15 am)57 % (11:55 am)
Barometer30.24 in30.30 in (10:15 pm)30.16 in (12:35 am)
Wind Speed3.1 mph11.5 mph (3:15 pm)
Weather ElementAverage
Visibility10 mi
Wind DirectionSSE (141.4 °)

Weather ElementTotal
Precipitation---
Heating Degree Days25.8 (Base 65)
Averaged from 66 records on March 3, 2013
WEATHER CONDITIONS BREAKOUT
WIND DIRECTION BREAKOUT
WEATHER BY HOUR - MARCH 3, 2013
[ °C ]   °F
Local TimeTemperatureDewpointHumidityBarometerVisibilityWind DirectionWind SpeedGust SpeedPrecipitationEventsConditions
12:35 AM37.4 °F33.8 °F87 %30.16 in10.0 miSouth (190°)5.8 mphClear
12:55 AM37.4 °F33.8 °F87 %30.16 in10.0 miSW (220°)6.9 mphClear
1:15 AM41.0 °F32.0 °F70 %30.17 in10.0 miWSW (250°)4.6 mphClear
1:35 AM41.0 °F32.0 °F70 %30.17 in10.0 miWest (260°)4.6 mphClear
1:55 AM41.0 °F32.0 °F70 %30.18 in10.0 miWSW (250°)3.5 mphClear
2:15 AM39.2 °F32.0 °F75 %30.18 in10.0 miSW (220°)3.5 mphClear
2:35 AM37.4 °F32.0 °F81 %30.18 in10.0 miSSW (210°)3.5 mphClear
3:15 AM35.6 °F32.0 °F87 %30.19 in10.0 miCalmPartly Cloudy
3:35 AM35.6 °F32.0 °F87 %30.19 in10.0 miCalmClear
3:55 AM33.8 °F32.0 °F93 %30.20 in10.0 miCalmClear
4:35 AM33.8 °F32.0 °F93 %30.20 in10.0 miCalmPartly Cloudy
5:15 AM33.8 °F32.0 °F93 %30.20 in10.0 miCalmPartly Cloudy
5:35 AM33.8 °F32.0 °F93 %30.21 in10.0 miCalmClear
5:55 AM35.6 °F33.8 °F93 %30.22 in10.0 miCalmClear
6:15 AM32.0 °F32.0 °F100 %30.22 in10.0 miSSW (200°)4.6 mphPartly Cloudy
6:35 AM33.8 °F32.0 °F93 %30.22 in10.0 miSouth (180°)4.6 mphScattered Clouds
6:55 AM35.6 °F33.8 °F93 %30.22 in10.0 miNorthMostly Cloudy
7:15 AM35.6 °F33.8 °F93 %30.23 in10.0 miCalmMostly Cloudy
7:35 AM35.6 °F32.0 °F87 %30.23 in10.0 miCalmMostly Cloudy
7:55 AM39.2 °F32.0 °F75 %30.23 in10.0 miCalmPartly Cloudy
8:15 AM37.4 °F35.6 °F93 %30.23 in10.0 miSSW (200°)5.8 mphClear
8:35 AM39.2 °F32.0 °F75 %30.23 in10.0 miSW (220°)6.9 mphClear
8:55 AM41.0 °F33.8 °F76 %30.23 in10.0 miSSW (200°)3.5 mphPartly Cloudy
9:15 AM41.0 °F32.0 °F70 %30.24 in10.0 miCalmMostly Cloudy
9:35 AM41.0 °F32.0 °F70 %30.24 in10.0 miCalmOvercast
9:55 AM42.8 °F32.0 °F66 %30.24 in10.0 miNW (310°)3.5 mphOvercast
10:15 AM44.6 °F32.0 °F61 %30.24 in10.0 miNW (310°)6.9 mphMostly Cloudy
10:35 AM44.6 °F32.0 °F61 %30.24 in10.0 miWest (260°)6.9 mphMostly Cloudy
10:55 AM42.8 °F32.0 °F66 %30.24 in10.0 miNW (320°)6.9 mphMostly Cloudy
11:15 AM42.8 °F33.8 °F70 %30.25 in10.0 miCalmMostly Cloudy
11:35 AM44.6 °F32.0 °F61 %30.25 in10.0 miNorth (360°)3.5 mphMostly Cloudy
11:55 AM46.4 °F32.0 °F57 %30.25 in10.0 miNNW (330°)4.6 mphMostly Cloudy
12:15 PM44.6 °F32.0 °F61 %30.25 in10.0 miNNW (340°)5.8 mphScattered Clouds
12:35 PM44.6 °F37.4 °F76 %30.25 in10.0 miNNW (340°)5.8 mphScattered Clouds
12:55 PM44.6 °F35.6 °F71 %30.25 in10.0 miNNW (340°)8.1 mphPartly Cloudy
1:15 PM44.6 °F35.6 °F71 %30.25 in10.0 miNNW (340°)9.2 mphPartly Cloudy
1:35 PM44.6 °F37.4 °F76 %30.25 in10.0 miNorth (350°)8.1 mphScattered Clouds
1:55 PM46.4 °F37.4 °F71 %30.26 in10.0 miNorth (350°)6.9 mphMostly Cloudy
2:15 PM44.6 °F37.4 °F76 %30.25 in10.0 miNorth (350°)9.2 mphScattered Clouds
2:35 PM44.6 °F35.6 °F71 %30.26 in10.0 miNorth (350°)8.1 mphClear
2:55 PM46.4 °F37.4 °F71 %30.26 in10.0 miNorth (350°)10.4 mphPartly Cloudy
3:15 PM44.6 °F35.6 °F71 %30.26 in10.0 miNorth (350°)11.5 mphPartly Cloudy
3:35 PM44.6 °F35.6 °F71 %30.26 in10.0 miNorth (360°)9.2 mphScattered Clouds
3:55 PM44.6 °F35.6 °F71 %30.26 in10.0 miNNW (340°)5.8 mphScattered Clouds
4:15 PM44.6 °F35.6 °F71 %30.26 in10.0 miNNW (340°)3.5 mphPartly Cloudy
4:35 PM44.6 °F35.6 °F71 %30.26 in10.0 miNNW (340°)3.5 mphClear
4:55 PM42.8 °F35.6 °F76 %30.26 in10.0 miCalmClear
5:15 PM42.8 °F35.6 °F76 %30.26 in10.0 miCalmClear
5:35 PM41.0 °F35.6 °F81 %30.27 in10.0 miCalmClear
5:55 PM39.2 °F35.6 °F87 %30.27 in10.0 miCalmClear
6:15 PM39.2 °F35.6 °F87 %30.27 in10.0 miCalmClear
6:35 PM37.4 °F35.6 °F93 %30.28 in10.0 miCalmClear
6:55 PM37.4 °F35.6 °F93 %30.28 in10.0 miNorthClear
7:15 PM37.4 °F35.6 °F93 %30.28 in10.0 miCalmClear
7:35 PM35.6 °F35.6 °F100 %30.28 in10.0 miCalmClear
7:55 PM35.6 °F35.6 °F100 %30.28 in10.0 miCalmClear
8:15 PM35.6 °F35.6 °F100 %30.28 in10.0 miCalmClear
8:35 PM35.6 °F33.8 °F93 %30.28 in10.0 miCalmClear
8:55 PM35.6 °F35.6 °F100 %30.29 in10.0 miNorthClear
9:15 PM35.6 °F33.8 °F93 %30.29 in10.0 miCalmClear
9:35 PM35.6 °F33.8 °F93 %30.29 in10.0 miCalmClear
10:15 PM33.8 °F32.0 °F93 %30.30 in10.0 miCalmClear
10:55 PM33.8 °F32.0 °F93 %30.30 in10.0 miCalmClear
11:15 PM33.8 °F33.8 °F100 %30.29 in10.0 miCalmClear
11:35 PM32.0 °F32.0 °F100 %30.29 in10.0 miCalmClear
11:55 PM32.0 °F32.0 °F100 %30.29 in10.0 miNorthClear
Hourly data recorded from CZBB, located miles away from Vancouver, British Columbia







STORIES FROM OUR PARTNERS